Time,TemperatureF,DewpointF,PressureIn,WindDirection,WindDirectionDegrees,WindSpeedMPH,WindSpeedGustMPH,Humidity,HourlyPrecipIn,Conditions,Clouds,dailyrainin,SoftwareType,DateUTC
2013-02-28 00:01:00,-1.0,-4.0,30.65,East,98,2.0,0.0,87,-99.99,,,-99.99,,2013-02-28 07:01:00,
2013-02-28 00:31:00,-3.0,-6.0,30.66,East,101,0.0,0.0,85,-99.99,,,-99.99,,2013-02-28 07:31:00,
2013-02-28 00:42:00,-3.0,-6.0,30.66,East,101,0.0,0.0,85,-99.99,,,-99.99,,2013-02-28 07:42:00,
2013-02-28 00:52:00,-4.0,-7.0,30.66,ESE,102,0.0,0.0,86,-99.99,,,-99.99,,2013-02-28 07:52:00,
2013-02-28 01:01:00,-5.0,-8.0,30.67,SE,143,0.0,0.0,86,-99.99,,,-99.99,,2013-02-28 08:01:00,
2013-02-28 01:21:00,-4.0,-7.0,30.68,SE,141,0.0,0.0,88,-99.99,,,-99.99,,2013-02-28 08:21:00,
2013-02-28 01:31:00,-4.0,-6.0,30.68,ESE,104,1.0,0.0,89,-99.99,,,-99.99,,2013-02-28 08:31:00,
2013-02-28 01:41:00,-4.0,-6.0,30.68,ESE,104,1.0,0.0,89,-99.99,,,-99.99,,2013-02-28 08:41:00,
2013-02-28 01:52:00,-4.0,-7.0,30.70,ESE,115,1.0,0.0,86,-99.99,,,-99.99,,2013-02-28 08:52:00,
2013-02-28 02:03:00,-5.0,-9.0,30.72,ESE,122,0.0,0.0,84,-99.99,,,-99.99,,2013-02-28 09:03:00,
2013-02-28 02:21:00,-6.0,-9.0,30.72,SSW,198,0.0,0.0,85,-99.99,,,-99.99,,2013-02-28 09:21:00,
2013-02-28 02:31:00,-7.0,-10.0,30.73,SSW,198,0.0,0.0,85,-99.99,,,-99.99,,2013-02-28 09:31:00,
2013-02-28 02:41:00,-7.0,-10.0,30.73,SSW,198,0.0,0.0,85,-99.99,,,-99.99,,2013-02-28 09:41:00,
2013-02-28 02:52:00,-8.0,-12.0,30.74,SSW,199,0.0,0.0,84,-99.99,,,-99.99,,2013-02-28 09:52:00,
2013-02-28 03:01:00,-8.0,-11.0,30.76,East,96,0.0,0.0,86,-99.99,,,-99.99,,2013-02-28 10:01:00,
2013-02-28 03:21:00,-8.0,-12.0,30.76,NNE,20,1.0,0.0,84,-99.99,,,-99.99,,2013-02-28 10:21:00,
2013-02-28 03:31:00,-8.0,-11.0,30.77,NNW,328,0.0,0.0,85,-99.99,,,-99.99,,2013-02-28 10:31:00,
2013-02-28 03:41:00,-8.0,-11.0,30.77,NNW,328,0.0,0.0,85,-99.99,,,-99.99,,2013-02-28 10:41:00,
2013-02-28 03:51:00,-8.0,-11.0,30.77,NNW,328,0.0,0.0,85,-99.99,,,-99.99,,2013-02-28 10:51:00,
2013-02-28 04:01:00,-8.0,-11.0,30.77,NNW,328,0.0,0.0,85,-99.99,,,-99.99,,2013-02-28 11:01:00,
2013-02-28 04:32:00,-8.0,-12.0,30.77,East,99,0.0,0.0,83,-99.99,,,-99.99,,2013-02-28 11:32:00,
2013-02-28 04:42:00,-8.0,-12.0,30.77,East,99,0.0,0.0,83,-99.99,,,-99.99,,2013-02-28 11:42:00,
2013-02-28 04:52:00,-8.0,-12.0,30.77,East,99,0.0,0.0,83,-99.99,,,-99.99,,2013-02-28 11:52:00,
2013-02-28 05:01:00,-10.0,-13.0,30.78,East,98,0.0,0.0,84,-99.99,,,-99.99,,2013-02-28 12:01:00,
2013-02-28 05:21:00,-11.0,-14.0,30.79,SSE,163,0.0,0.0,84,-99.99,,,-99.99,,2013-02-28 12:21:00,
2013-02-28 05:32:00,-11.0,-14.0,30.79,SSE,163,0.0,0.0,84,-99.99,,,-99.99,,2013-02-28 12:32:00,
2013-02-28 05:42:00,-11.0,-14.0,30.79,SSE,163,0.0,0.0,84,-99.99,,,-99.99,,2013-02-28 12:42:00,
2013-02-28 05:52:00,-11.0,-14.0,30.79,SSE,163,0.0,0.0,84,-99.99,,,-99.99,,2013-02-28 12:52:00,
2013-02-28 06:01:00,-10.0,-13.0,30.79,SSE,167,0.0,0.0,85,-99.99,,,-99.99,,2013-02-28 13:01:00,
2013-02-28 06:11:00,-11.0,-15.0,30.79,SE,143,1.0,0.0,83,-99.99,,,-99.99,,2013-02-28 13:11:00,
2013-02-28 06:32:00,-12.0,-16.0,30.79,SW,218,0.0,0.0,83,-99.99,,,-99.99,,2013-02-28 13:32:00,
2013-02-28 07:01:00,-11.0,-15.0,30.80,ESE,108,1.0,0.0,82,-99.99,,,-99.99,,2013-02-28 14:01:00,
2013-02-28 07:11:00,-11.0,-15.0,30.80,SW,224,0.0,0.0,83,-99.99,,,-99.99,,2013-02-28 14:11:00,
2013-02-28 07:31:00,-12.0,-16.0,30.80,NE,48,0.0,0.0,82,-99.99,,,-99.99,,2013-02-28 14:31:00,
2013-02-28 08:02:00,-9.0,-12.0,30.80,SW,228,0.0,0.0,85,-99.99,,,-99.99,,2013-02-28 15:02:00,
2013-02-28 08:32:00,1.0,-2.0,30.81,SW,228,0.0,0.0,88,-99.99,,,-99.99,,2013-02-28 15:32:00,
2013-02-28 08:52:00,4.0,1.0,30.81,SW,228,0.0,0.0,88,-99.99,,,-99.99,,2013-02-28 15:52:00,
2013-02-28 09:01:00,10.0,6.0,30.81,SW,228,0.0,0.0,85,-99.99,,,-99.99,,2013-02-28 16:01:00,
2013-02-28 09:11:00,10.0,6.0,30.81,SW,228,0.0,0.0,85,-99.99,,,-99.99,,2013-02-28 16:11:00,
2013-02-28 09:21:00,12.0,7.0,30.81,SW,232,0.0,0.0,81,-99.99,,,-99.99,,2013-02-28 16:21:00,
2013-02-28 09:31:00,9.0,4.0,30.80,West,271,0.0,0.0,81,-99.99,,,-99.99,,2013-02-28 16:31:00,
2013-02-28 09:52:00,13.0,7.0,30.80,West,271,0.0,0.0,76,-99.99,,,-99.99,,2013-02-28 16:52:00,
2013-02-28 10:01:00,21.0,9.0,30.80,SSW,208,0.0,0.0,60,-99.99,,,-99.99,,2013-02-28 17:01:00,
2013-02-28 10:21:00,21.0,9.0,30.80,SSW,208,0.0,0.0,60,-99.99,,,-99.99,,2013-02-28 17:21:00,
2013-02-28 10:32:00,23.0,9.0,30.80,SW,221,0.0,0.0,54,-99.99,,,-99.99,,2013-02-28 17:32:00,
2013-02-28 10:41:00,23.0,9.0,30.80,SW,221,0.0,0.0,54,-99.99,,,-99.99,,2013-02-28 17:41:00,
2013-02-28 10:52:00,26.0,9.0,30.79,SW,236,0.0,0.0,47,-99.99,,,-99.99,,2013-02-28 17:52:00,
2013-02-28 11:01:00,26.0,9.0,30.79,SW,236,0.0,0.0,47,-99.99,,,-99.99,,2013-02-28 18:01:00,
2013-02-28 11:11:00,26.0,9.0,30.79,SW,236,0.0,0.0,47,-99.99,,,-99.99,,2013-02-28 18:11:00,
2013-02-28 11:21:00,30.0,13.0,30.79,SW,235,0.0,0.0,49,-99.99,,,-99.99,,2013-02-28 18:21:00,
2013-02-28 11:32:00,30.0,10.0,30.78,WSW,238,2.0,0.0,43,-99.99,,,-99.99,,2013-02-28 18:32:00,
2013-02-28 11:42:00,30.0,10.0,30.78,WSW,238,2.0,0.0,43,-99.99,,,-99.99,,2013-02-28 18:42:00,
2013-02-28 11:52:00,30.0,10.0,30.77,SW,233,2.0,0.0,42,-99.99,,,-99.99,,2013-02-28 18:52:00,
2013-02-28 12:01:00,34.0,11.0,30.77,East,82,0.0,0.0,37,-99.99,,,-99.99,,2013-02-28 19:01:00,
2013-02-28 12:11:00,34.0,11.0,30.77,East,82,0.0,0.0,37,-99.99,,,-99.99,,2013-02-28 19:11:00,
2013-02-28 12:21:00,33.0,10.0,30.76,NE,45,0.0,0.0,38,-99.99,,,-99.99,,2013-02-28 19:21:00,
2013-02-28 12:31:00,36.0,10.0,30.76,East,101,2.0,0.0,33,-99.99,,,-99.99,,2013-02-28 19:31:00,
2013-02-28 12:41:00,36.0,10.0,30.76,East,101,2.0,0.0,33,-99.99,,,-99.99,,2013-02-28 19:41:00,
2013-02-28 12:51:00,35.0,11.0,30.75,NNE,25,3.0,0.0,36,-99.99,,,-99.99,,2013-02-28 19:51:00,
2013-02-28 13:01:00,36.0,12.0,30.75,North,9,2.0,0.0,36,-99.99,,,-99.99,,2013-02-28 20:01:00,
2013-02-28 13:11:00,36.0,12.0,30.75,North,9,2.0,0.0,36,-99.99,,,-99.99,,2013-02-28 20:11:00,
2013-02-28 13:21:00,37.0,12.0,30.74,NNE,14,0.0,0.0,35,-99.99,,,-99.99,,2013-02-28 20:21:00,
2013-02-28 13:31:00,36.0,8.0,30.73,NNW,346,2.0,0.0,31,-99.99,,,-99.99,,2013-02-28 20:31:00,
2013-02-28 13:41:00,36.0,8.0,30.73,NNW,346,2.0,0.0,31,-99.99,,,-99.99,,2013-02-28 20:41:00,
2013-02-28 13:52:00,36.0,8.0,30.73,NNW,346,2.0,0.0,31,-99.99,,,-99.99,,2013-02-28 20:52:00,
2013-02-28 14:01:00,38.0,5.0,30.72,ESE,115,0.0,0.0,25,-99.99,,,-99.99,,2013-02-28 21:01:00,
2013-02-28 14:11:00,38.0,5.0,30.72,ESE,115,0.0,0.0,25,-99.99,,,-99.99,,2013-02-28 21:11:00,
2013-02-28 14:22:00,41.0,7.0,30.71,SE,143,0.0,0.0,24,-99.99,,,-99.99,,2013-02-28 21:22:00,
2013-02-28 14:31:00,38.0,5.0,30.71,WNW,300,2.0,0.0,25,-99.99,,,-99.99,,2013-02-28 21:31:00,
2013-02-28 14:41:00,38.0,5.0,30.71,WNW,300,2.0,0.0,25,-99.99,,,-99.99,,2013-02-28 21:41:00,
2013-02-28 14:51:00,39.0,8.0,30.71,South,171,4.0,0.0,27,-99.99,,,-99.99,,2013-02-28 21:51:00,
2013-02-28 15:01:00,42.0,7.0,30.70,South,172,1.0,0.0,23,-99.99,,,-99.99,,2013-02-28 22:01:00,
2013-02-28 15:11:00,42.0,7.0,30.70,South,172,1.0,0.0,23,-99.99,,,-99.99,,2013-02-28 22:11:00,
2013-02-28 15:21:00,43.0,7.0,30.70,SSW,200,2.0,0.0,22,-99.99,,,-99.99,,2013-02-28 22:21:00,
2013-02-28 15:31:00,43.0,7.0,30.70,SSW,200,2.0,0.0,22,-99.99,,,-99.99,,2013-02-28 22:31:00,
2013-02-28 15:41:00,43.0,7.0,30.70,SSW,200,2.0,0.0,22,-99.99,,,-99.99,,2013-02-28 22:41:00,
2013-02-28 15:52:00,40.0,9.0,30.69,ENE,59,2.0,0.0,27,-99.99,,,-99.99,,2013-02-28 22:52:00,
2013-02-28 16:01:00,37.0,7.0,30.70,ENE,68,2.0,0.0,28,-99.99,,,-99.99,,2013-02-28 23:01:00,
2013-02-28 16:11:00,37.0,7.0,30.70,ENE,68,2.0,0.0,28,-99.99,,,-99.99,,2013-02-28 23:11:00,
2013-02-28 16:21:00,36.0,8.0,30.70,East,83,2.0,0.0,30,-99.99,,,-99.99,,2013-02-28 23:21:00,
2013-02-28 16:31:00,35.0,8.0,30.69,East,82,0.0,0.0,32,-99.99,,,-99.99,,2013-02-28 23:31:00,
2013-02-28 16:41:00,35.0,8.0,30.69,East,82,0.0,0.0,32,-99.99,,,-99.99,,2013-02-28 23:41:00,
2013-02-28 16:52:00,36.0,8.0,30.69,NE,39,1.0,0.0,31,-99.99,,,-99.99,,2013-02-28 23:52:00,
2013-02-28 17:01:00,35.0,8.0,30.69,North,6,1.0,0.0,32,-99.99,,,-99.99,,2013-03-01 00:01:00,
2013-02-28 17:11:00,35.0,8.0,30.69,North,6,1.0,0.0,32,-99.99,,,-99.99,,2013-03-01 00:11:00,
2013-02-28 17:22:00,34.0,9.0,30.68,NNE,25,1.0,0.0,34,-99.99,,,-99.99,,2013-03-01 00:22:00,
2013-02-28 17:32:00,34.0,11.0,30.69,NNE,31,1.0,0.0,37,-99.99,,,-99.99,,2013-03-01 00:32:00,
2013-02-28 17:41:00,34.0,11.0,30.69,NNE,31,1.0,0.0,37,-99.99,,,-99.99,,2013-03-01 00:41:00,
2013-02-28 17:51:00,34.0,11.0,30.69,NNE,31,1.0,0.0,37,-99.99,,,-99.99,,2013-03-01 00:51:00,
2013-02-28 18:01:00,32.0,10.0,30.69,NE,47,0.0,0.0,40,-99.99,,,-99.99,,2013-03-01 01:01:00,
2013-02-28 18:11:00,32.0,10.0,30.69,NE,47,0.0,0.0,40,-99.99,,,-99.99,,2013-03-01 01:11:00,
2013-02-28 18:21:00,32.0,10.0,30.69,NE,47,0.0,0.0,40,-99.99,,,-99.99,,2013-03-01 01:21:00,
2013-02-28 18:31:00,26.0,9.0,30.70,East,89,1.0,0.0,47,-99.99,,,-99.99,,2013-03-01 01:31:00,
2013-02-28 18:52:00,26.0,9.0,30.70,East,85,2.0,0.0,47,-99.99,,,-99.99,,2013-03-01 01:52:00,
2013-02-28 19:01:00,24.0,9.0,30.71,East,88,0.0,0.0,53,-99.99,,,-99.99,,2013-03-01 02:01:00,
2013-02-28 19:11:00,22.0,11.0,30.72,ESE,108,1.0,0.0,62,-99.99,,,-99.99,,2013-03-01 02:11:00,
2013-02-28 19:21:00,22.0,11.0,30.72,ESE,108,1.0,0.0,62,-99.99,,,-99.99,,2013-03-01 02:21:00,
2013-02-28 19:31:00,22.0,11.0,30.73,SE,124,0.0,0.0,61,-99.99,,,-99.99,,2013-03-01 02:31:00,
2013-02-28 19:41:00,22.0,11.0,30.73,SE,124,0.0,0.0,61,-99.99,,,-99.99,,2013-03-01 02:41:00,
2013-02-28 19:52:00,22.0,11.0,30.73,SE,124,0.0,0.0,61,-99.99,,,-99.99,,2013-03-01 02:52:00,
2013-02-28 20:01:00,19.0,9.0,30.74,SE,124,0.0,0.0,64,-99.99,,,-99.99,,2013-03-01 03:01:00,
2013-02-28 20:11:00,19.0,9.0,30.74,SE,124,0.0,0.0,64,-99.99,,,-99.99,,2013-03-01 03:11:00,
2013-02-28 20:21:00,20.0,10.0,30.74,SE,124,0.0,0.0,64,-99.99,,,-99.99,,2013-03-01 03:21:00,
2013-02-28 20:32:00,20.0,11.0,30.74,SW,220,0.0,0.0,67,-99.99,,,-99.99,,2013-03-01 03:32:00,
2013-02-28 20:41:00,20.0,11.0,30.74,SW,220,0.0,0.0,67,-99.99,,,-99.99,,2013-03-01 03:41:00,
2013-02-28 20:51:00,21.0,11.0,30.74,SSE,154,1.0,0.0,66,-99.99,,,-99.99,,2013-03-01 03:51:00,
2013-02-28 21:01:00,22.0,12.0,30.74,SSE,163,0.0,0.0,64,-99.99,,,-99.99,,2013-03-01 04:01:00,
2013-02-28 21:11:00,22.0,12.0,30.74,SSE,163,0.0,0.0,64,-99.99,,,-99.99,,2013-03-01 04:11:00,
2013-02-28 21:21:00,22.0,12.0,30.74,SSE,163,0.0,0.0,64,-99.99,,,-99.99,,2013-03-01 04:21:00,
2013-02-28 21:31:00,22.0,12.0,30.75,ESE,114,0.0,0.0,65,-99.99,,,-99.99,,2013-03-01 04:31:00,
2013-02-28 21:41:00,22.0,12.0,30.75,ESE,114,0.0,0.0,65,-99.99,,,-99.99,,2013-03-01 04:41:00,
2013-02-28 21:52:00,22.0,11.0,30.75,ENE,78,1.0,0.0,63,-99.99,,,-99.99,,2013-03-01 04:52:00,
2013-02-28 22:01:00,22.0,11.0,30.75,SE,141,0.0,0.0,62,-99.99,,,-99.99,,2013-03-01 05:01:00,
2013-02-28 22:11:00,22.0,11.0,30.75,SE,141,0.0,0.0,62,-99.99,,,-99.99,,2013-03-01 05:11:00,
2013-02-28 22:22:00,22.0,12.0,30.76,SE,141,0.0,0.0,66,-99.99,,,-99.99,,2013-03-01 05:22:00,
2013-02-28 22:32:00,22.0,12.0,30.76,SE,141,0.0,0.0,66,-99.99,,,-99.99,,2013-03-01 05:32:00,
2013-02-28 22:41:00,22.0,12.0,30.76,SE,141,0.0,0.0,66,-99.99,,,-99.99,,2013-03-01 05:41:00,
2013-02-28 22:52:00,22.0,12.0,30.76,SSE,165,0.0,0.0,66,-99.99,,,-99.99,,2013-03-01 05:52:00,
2013-02-28 23:02:00,21.0,13.0,30.76,SSE,165,0.0,0.0,71,-99.99,,,-99.99,,2013-03-01 06:02:00,
2013-02-28 23:11:00,21.0,13.0,30.76,SSE,165,0.0,0.0,71,-99.99,,,-99.99,,2013-03-01 06:11:00,
2013-02-28 23:21:00,21.0,13.0,30.76,SSE,165,0.0,0.0,71,-99.99,,,-99.99,,2013-03-01 06:21:00,
2013-02-28 23:32:00,21.0,13.0,30.76,SSE,165,0.0,0.0,71,-99.99,,,-99.99,,2013-03-01 06:32:00,
2013-02-28 23:41:00,21.0,13.0,30.76,SSE,165,0.0,0.0,71,-99.99,,,-99.99,,2013-03-01 06:41:00,
2013-02-28 23:52:00,21.0,14.0,30.75,ESE,110,0.0,0.0,75,-99.99,,,-99.99,,2013-03-01 06:52:00,